Date String (YYYY-MM-DD hh:mm:ss) UTC,Instrument flags,Ambient pressure (hPa),Sample flow (lpm),Bypass flow (lpm),Sample temperature (°C),Ambient temperature (°C),ASC tube jacket temperature (°C),LED temperature (°C),Box temperature (°C),Sample RH (%),Span deviation,Mass concentration (μg/m³),Mass concentration (μg/m³),Mass concentration (μg/m³)
DateTimeUTC,F1_M11,P_M11,Q1_M11,Q2_M11,T1_M11,T2_M11,T3_M11,T4_M11,T5_M11,U1_M11,ZSPAN_M11,X0_M11,X2_M11,X1_M11
2022-06-18 13:00:00,,0824.1,4.99,0.00,29.6,28.2,00.0,38.5,31.5,25.3,0000.0,0013.44,0008.32,0006.95
2022-06-18 13:01:00,,0824.1,5.00,0.00,29.6,28.3,00.0,38.5,31.5,25.5,0000.0,0013.90,0008.38,0007.01
2022-06-18 13:02:00,,0824.2,5.01,0.00,29.6,28.4,00.0,38.5,31.5,25.6,0000.0,0014.34,0008.42,0007.06
2022-06-18 13:03:00,,0824.2,5.01,0.00,29.7,28.5,00.0,38.5,31.6,25.6,0000.0,0014.25,0008.50,0007.11
2022-06-18 13:04:00,,0824.2,4.99,0.00,29.7,28.6,00.0,38.5,31.6,25.3,0000.0,0014.34,0008.62,0007.17
2022-06-18 13:05:00,,0824.2,5.00,0.00,29.7,28.6,00.0,38.5,31.6,25.3,0000.0,0014.25,0008.74,0007.23
2022-06-18 13:06:00,,0824.2,5.00,0.00,29.7,28.7,00.0,38.5,31.7,25.2,0000.0,0014.40,0008.81,0007.30
2022-06-18 13:07:00,,0824.2,4.99,0.00,29.7,28.8,00.0,38.5,31.7,25.2,0000.0,0014.49,0008.87,0007.36
2022-06-18 13:08:00,,0824.2,5.00,0.00,29.8,28.8,00.0,38.6,31.7,25.1,0000.0,0014.75,0008.95,0007.42
2022-06-18 13:09:00,,0824.2,5.00,0.00,29.8,28.9,00.0,38.6,31.7,25.1,0000.0,0015.03,0009.00,0007.48
2022-06-18 13:10:00,,0824.3,4.99,0.00,29.8,28.9,00.0,38.6,31.7,25.1,0000.0,0014.81,0008.98,0007.52
2022-06-18 13:11:00,,0824.3,5.01,0.00,29.8,29.0,00.0,38.6,31.8,25.1,0000.0,0014.73,0008.97,0007.57
2022-06-18 13:12:00,,0824.3,4.99,0.00,29.9,28.7,00.0,38.6,31.7,25.1,0000.0,0014.33,0009.00,0007.59
2022-06-18 13:13:00,,0824.3,5.00,0.00,29.8,27.9,00.0,38.5,31.6,25.2,0000.0,0014.06,0009.07,0007.62
2022-06-18 13:14:00,,0824.3,5.01,0.00,29.7,27.4,00.0,38.5,31.4,25.4,0002.7,0014.14,0009.08,0007.66
2022-06-18 13:15:00,,0824.2,5.00,0.00,29.7,27.3,00.0,38.4,31.3,25.5,0002.9,0014.04,0009.06,0007.69
2022-06-18 13:16:00,,0824.3,4.99,0.00,29.6,27.4,00.0,38.4,31.3,25.5,0002.9,0014.44,0009.04,0007.71
2022-06-18 13:17:00,,0824.2,5.00,0.00,29.6,27.5,00.0,38.4,31.3,25.5,0002.9,0014.42,0009.05,0007.71
2022-06-18 13:18:00,,0824.3,4.99,0.00,29.5,27.7,00.0,38.4,31.3,25.5,0002.7,0014.43,0009.05,0007.70
2022-06-18 13:19:00,,0824.3,5.01,0.00,29.5,27.8,00.0,38.4,31.4,25.5,0002.8,0014.54,0009.07,0007.70
2022-06-18 13:20:00,,0824.4,5.00,0.00,29.5,28.0,00.0,38.4,31.4,25.5,0002.9,0014.38,0009.07,0007.69
2022-06-18 13:21:00,,0824.5,4.99,0.00,29.5,28.1,00.0,38.4,31.4,25.7,0003.2,0014.38,0009.10,0007.69
2022-06-18 13:22:00,,0824.4,4.99,0.00,29.6,28.2,00.0,38.4,31.4,25.6,0002.7,0014.44,0009.12,0007.66
2022-06-18 13:23:00,,0824.4,5.00,0.00,29.6,28.3,00.0,38.4,31.5,25.7,0002.5,0014.39,0009.09,0007.64
2022-06-18 13:24:00,,0824.4,5.01,0.00,29.6,28.4,00.0,38.4,31.5,25.8,0002.6,0014.36,0009.06,0007.62
2022-06-18 13:25:00,,0824.4,5.00,0.00,29.6,28.5,00.0,38.4,31.5,25.9,0002.8,0014.38,0009.07,0007.61
2022-06-18 13:26:00,,0824.4,5.00,0.00,29.6,28.6,00.0,38.4,31.6,25.9,0003.2,0014.58,0009.08,0007.60
2022-06-18 13:27:00,,0824.4,5.00,0.00,29.7,28.7,00.0,38.5,31.6,25.7,0002.9,0014.70,0009.11,0007.61
2022-06-18 13:28:00,,0824.4,5.00,0.00,29.7,28.7,00.0,38.5,31.6,25.8,0002.8,0015.11,0009.11,0007.64
2022-06-18 13:29:00,,0824.5,5.01,0.00,29.7,28.8,00.0,38.5,31.7,25.9,0002.8,0015.44,0009.10,0007.66
2022-06-18 13:30:00,,0824.5,5.00,0.00,29.7,28.9,00.0,38.5,31.7,25.9,0002.7,0015.13,0009.05,0007.67
2022-06-18 13:31:00,,0824.5,5.01,0.00,29.8,28.9,00.0,38.5,31.8,25.9,0002.3,0015.20,0009.08,0007.69
2022-06-18 13:32:00,,0824.6,5.00,0.00,29.8,28.9,00.0,38.5,31.8,25.7,0002.2,0015.42,0009.12,0007.71
2022-06-18 13:33:00,,0824.7,5.00,0.00,29.8,28.6,00.0,38.5,31.7,25.9,0002.2,0015.71,0009.21,0007.75
2022-06-18 13:34:00,,0824.7,4.99,0.00,29.7,27.7,00.0,38.4,31.5,26.1,0002.2,0015.88,0009.25,0007.79
2022-06-18 13:35:00,,0824.4,5.01,0.00,29.7,27.4,00.0,38.4,31.4,26.4,0002.2,0016.02,0009.25,0007.80
2022-06-18 13:36:00,,0824.5,5.00,0.00,29.6,27.3,00.0,38.4,31.3,26.6,0001.8,0016.31,0009.28,0007.82
2022-06-18 13:37:00,,0824.7,4.99,0.00,29.6,27.4,00.0,38.4,31.3,26.7,0001.9,0016.75,0009.31,0007.83
2022-06-18 13:38:00,,0824.8,4.99,0.00,29.5,27.6,00.0,38.4,31.3,27.1,0002.3,0016.13,0009.23,0007.80
2022-06-18 13:39:00,,0824.8,5.01,0.00,29.5,27.7,00.0,38.4,31.3,27.2,0002.7,0015.92,0009.19,0007.76
2022-06-18 13:40:00,,0824.6,5.00,0.00,29.5,27.9,00.0,38.4,31.3,27.5,0002.6,0015.72,0009.16,0007.74
2022-06-18 13:41:00,,0824.6,5.01,0.00,29.5,28.0,00.0,38.4,31.4,28.2,0002.6,0015.80,0009.17,0007.72
2022-06-18 13:42:00,,0824.8,5.01,0.00,29.5,28.1,00.0,38.4,31.4,28.6,0002.5,0015.76,0009.17,0007.69
2022-06-18 13:43:00,,0824.5,5.00,0.00,29.5,28.3,00.0,38.4,31.4,28.7,0002.6,0015.47,0009.07,0007.65
2022-06-18 13:44:00,,0824.6,5.00,0.00,29.6,28.4,00.0,38.4,31.5,28.9,0003.0,0015.25,0008.99,0007.60
2022-06-18 13:45:00,,0824.8,5.01,0.00,29.6,28.5,00.0,38.4,31.5,28.9,0003.3,0015.42,0008.88,0007.54
2022-06-18 13:46:00,,0824.6,4.98,0.00,29.6,28.5,00.0,38.4,31.5,29.1,0003.4,0015.58,0008.85,0007.49
2022-06-18 13:47:00,,0824.6,5.00,0.00,29.6,28.6,00.0,38.4,31.6,29.3,0003.7,0015.90,0008.80,0007.43
2022-06-18 13:48:00,,0824.6,5.00,0.00,29.7,28.7,00.0,38.4,31.6,29.2,0003.7,0015.36,0008.69,0007.39
2022-06-18 13:49:00,,0824.6,5.00,0.00,29.7,28.8,00.0,38.5,31.6,29.2,0003.2,0016.00,0008.69,0007.34
2022-06-18 13:50:00,,0824.6,5.01,0.00,29.7,28.7,00.0,38.5,31.7,29.2,0002.8,0017.13,0008.73,0007.31
2022-06-18 13:51:00,,0824.6,5.00,0.00,29.7,28.1,00.0,38.4,31.5,29.6,0003.1,0017.20,0008.76,0007.29
2022-06-18 13:52:00,,0824.7,4.99,0.00,29.6,27.4,00.0,38.3,31.3,30.0,0003.6,0017.46,0008.74,0007.27
2022-06-18 13:53:00,,0824.9,5.01,0.00,29.6,27.2,00.0,38.3,31.2,30.3,0003.8,0017.58,0008.69,0007.25
2022-06-18 13:54:00,,0824.7,5.00,0.00,29.5,27.3,00.0,38.3,31.2,30.4,0004.1,0017.87,0008.74,0007.22
2022-06-18 13:55:00,,0824.8,5.00,0.00,29.5,27.4,00.0,38.3,31.2,30.3,0003.8,0018.16,0008.82,0007.20
2022-06-18 13:56:00,,0824.8,5.00,0.00,29.4,27.6,00.0,38.3,31.3,30.5,0003.4,0017.67,0008.81,0007.17
2022-06-18 13:57:00,,0824.9,4.99,0.00,29.4,27.7,00.0,38.3,31.3,30.6,0002.9,0017.38,0008.77,0007.17
2022-06-18 13:58:00,,0824.9,5.00,0.00,29.4,27.9,00.0,38.3,31.3,30.8,0002.7,0017.12,0008.75,0007.14
2022-06-18 13:59:00,,0824.8,5.00,0.00,29.5,28.0,00.0,38.3,31.3,30.8,0002.8,0016.91,0008.72,0007.11
